Flag for Germany Weather past 2 weeks in Leonberg, Baden-Württemberg, Germany

Now
48 °F

Clear.


Feels Like: 48 °F
Forecast: 32 / 60 °F
Wind: 1 mph from North

Location: Stuttgart-Echterdingen

Current Time: Apr 20, 2015 at 12:02:49 AM

Latest Report: Apr 19, 2015 at 11:20 PM


Visibility: 10 mi

Pressure: 30.15 "Hg

Humidity: 40%

Dew point: 25 °F

Location of LeonbergLocation

Historic Weather in Leonberg — Graph

°F

Leonberg temperature yesterday

Maximum temperature yesterday: 59 °F (at 2:50 PM)
Minimum temperature yesterday: 36 °F (at 2:50 AM)
Average temperature yesterday: 48 °F

Past Weeks' High & Low Weather Summary

 TemperatureHumidityPressure
High77 °F (Apr 15, 3:20 PM)93% (Apr 8, 6:20 AM)30.60 "Hg (Apr 8, 6:20 AM)
Low27 °F (Apr 6, 7:20 AM)15% (Apr 15, 5:50 PM)29.86 "Hg (Apr 17, 7:50 AM)
Average51 °F59%30.24 "Hg
* Reported Apr 4 10:20 PM — Apr 19 10:20 PM, Leonberg, Weather by CustomWeather, © 2015

Note: Actual official high and low records may vary slightly from our data, if they occured in-between our weather recording intervals... More about our weather records

Advertising

Leonberg weather history for previous 24 hours

 ConditionsComfort  
Time TempWeatherWind HumidityBarometerVisibility
10:20 PM
Sun, Apr 19
48 °FClear.2 mph43%30.15 "Hg10 mi
9:50 PM52 °FClear.1 mph35%30.12 "Hg10 mi
9:20 PM52 °FClear.5 mph35%30.12 "Hg10 mi
8:50 PM52 °FSunny.8 mph38%30.12 "Hg10 mi
8:20 PM52 °FSunny.10 mph41%30.09 "Hg10 mi
7:50 PM55 °FSunny.9 mph36%30.09 "Hg10 mi
7:20 PM57 °FPassing clouds.9 mph29%30.07 "HgN/A
6:50 PM59 °FPassing clouds.9 mph31%30.07 "HgN/A
6:20 PM59 °FPassing clouds.10 mph29%30.07 "HgN/A
5:50 PM59 °FPassing clouds.12 mph29%30.07 "HgN/A
5:20 PM59 °FPassing clouds.12 mph29%30.07 "HgN/A
4:50 PM59 °FPassing clouds.10 mph29%30.07 "HgN/A
4:20 PM59 °FSunny.14 mph29%30.07 "Hg10 mi
3:50 PM59 °FPassing clouds.13 mph34%30.07 "HgN/A
3:20 PM59 °FPassing clouds.13 mph31%30.07 "HgN/A
2:50 PM59 °FPassing clouds.13 mph31%30.07 "HgN/A
2:20 PM57 °FPassing clouds.13 mph33%30.09 "HgN/A
1:50 PM57 °FPassing clouds.15 mph31%30.09 "HgN/A
1:20 PM55 °FSunny.14 mph33%30.09 "Hg10 mi
12:50 PM55 °FPassing clouds.12 mph36%30.09 "HgN/A
12:20 PM54 °FPassing clouds.13 mph35%30.09 "HgN/A
11:50 AM54 °FPassing clouds.14 mph38%30.09 "HgN/A
11:20 AM52 °FPassing clouds.14 mph44%30.09 "HgN/A
10:50 AM52 °FPassing clouds.15 mph41%30.09 "HgN/A
10:20 AM50 °FSunny.14 mph50%30.09 "Hg10 mi
9:50 AM48 °FPassing clouds.12 mph50%30.09 "HgN/A
9:20 AM46 °FPassing clouds.9 mph53%30.12 "HgN/A
8:50 AM45 °FPassing clouds.8 mph57%30.12 "HgN/A
8:20 AM43 °FPassing clouds.3 mph61%30.12 "HgN/A
7:50 AM39 °FPassing clouds.3 mph65%30.12 "HgN/A
7:20 AM36 °FClear.2 mph70%30.09 "Hg10 mi
6:50 AM36 °FClear.1 mph70%30.09 "Hg10 mi
6:20 AM36 °FClear.1 mph70%30.12 "Hg10 mi
5:50 AM36 °FClear.2 mph70%30.12 "Hg10 mi
5:20 AM36 °FClear.2 mph70%30.12 "Hg10 mi
4:50 AM36 °FClear.2 mph70%30.12 "Hg10 mi
4:20 AM36 °FPassing clouds.3 mph70%30.15 "HgN/A
3:50 AM36 °FClear.5 mph70%30.15 "Hg10 mi
3:20 AM36 °FClear.6 mph75%30.15 "Hg10 mi
2:50 AM36 °FClear.7 mph75%30.18 "Hg10 mi
2:20 AM37 °FClear.3 mph70%30.18 "Hg10 mi
1:20 AM39 °FClear.6 mph65%30.18 "Hg10 mi
12:50 AM41 °FPassing clouds.3 mph61%30.18 "HgN/A
12:20 AM39 °FClear.3 mph61%30.21 "Hg10 mi
Weather by CustomWeather, © 2015

See weather overviewHow to use our weather pages